Regional Weather Roundup
Issued by NWS

Home | Current Version | Previous Version | Graphics & Text | Print | Product List | Glossary On
Versions: 1 2 3 4 5 6 7 8 9 10 11 12 13 14 15 16 17 18 19 20 21 22 23 24 25 26 27 28 29 30 31 32 33 34 35 36 37 38 39 40 41 42 43 44 45 46 47 48 49 50
000
ASUS45 KBOU 190607
RWRCO

WEATHER ROUNDUP FOR COLORADO
NATIONAL WEATHER SERVICE DENVER/BOULDER CO
1100 PM MST SAT FEB 18 2017

NOTE: "FAIR" INDICATES FEW OR NO CLOUDS BELOW 12000 FEET WITH NO
SIGNIFICANT WEATHER AND/OR OBSTRUCTIONS TO VISIBILITY.

COZ001>005-013-030-031-190700-
...NORTHWEST COLORADO...

CITY           SKY/WX    TMP DP  RH WIND       PRES   REMARKS
CRAIG          FAIR      28  25  88 CALM      29.77S
HAYDEN         FAIR      34  27  75 SE9       29.76S WCI  26
MEEKER         MOCLDY    33  29  85 CALM      29.76S
MOUNT WERNER   NOT AVBL
STEAMBOAT SPGS NOT AVBL
WALDEN         NOT AVBL
$$

COZ006>008-011-190700-
...WEST CENTRAL VALLEYS...

CITY           SKY/WX    TMP DP  RH WIND       PRES   REMARKS
GRAND JUNCTION FAIR      38  37  97 E8        29.72F
MONTROSE       FAIR      33  30  88 S7        29.77S WCI  27
EAGLE          FAIR      34  29  82 E6        29.78F WCI  29
RIFLE          FAIR      35  31  85 CALM      29.74F
DELTA          FAIR      38  35  87 N3        29.75S
NUCLA          FAIR      39  34  81 CALM      29.77S
$$

COZ017>023-064>068-190700-
...SOUTHWEST COLORADO...

CITY           SKY/WX    TMP DP  RH WIND       PRES   REMARKS
DURANGO        CLOUDY    41  27  57 E5        29.80S
CORTEZ         CLOUDY    49  30  48 SE13      29.76R
PAGOSA SPRINGS CLOUDY    37  29  73 W5        29.84S
TELLURIDE      FAIR      40  15  36 S7        29.83R
WOLF CREEK PAS LGT SNOW  23  19  86 S20G33    29.97S WCI   8
$$

COZ009-010-012-014-032>034-037-058>063-190700-
...CENTRAL COLORADO...

CITY           SKY/WX    TMP DP  RH WIND       PRES   REMARKS
ASPEN          FAIR      31  26  82 CALM      29.76F
BUENA VISTA    FAIR      32  27  81 CALM      29.79S
COPPER MTN     FAIR      34  19  55 MISG      29.89F
BERTHOUD PASS  FAIR      23  14  68 SW16G29   29.88F WCI  10
COTTONWOOD PAS FAIR      41  18  38 SE9       29.85S
GUNNISON       FAIR      25  22  88 CALM      29.81F
KREMMLING      FAIR      34  30  86 CALM      29.79S
LEADVILLE      FAIR      29  20  69 VRB3      29.81F
MONARCH PASS   CLOUDY    28  21  74 SW29      30.01S WCI  13
SALIDA         FAIR      47  29  50 SE6G18    29.85S
SUNLIGHT       NOT AVBL
WILKERSON PASS FAIR      30  21  69 SW12G18   29.91S WCI  21
$$

COZ069>075-190700-
...SAN LUIS VALLEY/SANGRE DE CRISTO MOUNTAINS...

CITY           SKY/WX    TMP DP  RH WIND       PRES   REMARKS
ALAMOSA        FAIR      34  30  85 SE8       29.82S WCI  27
LA VETA PASS   FAIR      32  27  80 NE21G31   29.88F WCI  20
SAGUACHE       FAIR      32  30  93 CALM      29.83S
$$

COZ035-036-038>040-190700-
...NORTHERN COLORADO FRONT RANGE...

CITY           SKY/WX    TMP DP  RH WIND       PRES   REMARKS
DENVER INTL AP MOCLDY    46  21  37 S15       29.67S
DMNS CITY PARK   N/A     47  23  38 SW5       29.67S
AURORA         MOCLDY    46  22  38 S12       29.68S
FRONT RANGE AP FAIR      48  23  37 S18       29.69R
ERIE MUNI ARPT FAIR      34  24  66 SW3       29.67R
BOULDER MUN AP FAIR      45  23  42 CALM      29.66S
CENTENNIAL     MOCLDY    46  22  38 S9        29.69R
BROOMFIELD     FAIR      46  23  39 CALM      29.68S
FORT COLLINS   FAIR      37  24  59 NW7       29.66F
LONGMONT       FAIR      41  25  52 W5        29.68S
$$

COZ041-046-047-076>085-087-088-190700-
...PIKES PEAK/PALMER DIVIDE AND SOUTHERN FOOTHILLS...

CITY           SKY/WX    TMP DP  RH WIND       PRES   REMARKS
COLO. SPRINGS  MOCLDY    43  20  39 E9        29.74S
A. F. ACADEMY  FAIR      35  20  53 N6        29.73S WCI  30
SCHRIEVER AFB  FAIR      43  19  38 SE9       29.74S
ELLICOTT       FAIR     N/A N/A N/A S13       29.74R
FALCON         NOT AVBL
FORT CARSON    FAIR      39  22  50 NW7       29.72R
LIMON          FAIR      40  23  50 SE5       29.73S
MONUMENT HILL  FAIR      39  21  48 S12       29.76R
TRINIDAD       FAIR      57  26  30 VRB7G20   29.76R
$$

COZ042>045-048>051-090-091-190700-
...NORTHEAST COLORADO...

CITY           SKY/WX    TMP DP  RH WIND       PRES   REMARKS
GREELEY ARPT   FAIR      36  20  52 CALM      29.67R
AKRON          FAIR      50  23  34 S15       29.68F
BURLINGTON     FAIR      48  29  47 S15       29.72F
WRAY           NOT AVBL
STERLING       FAIR      46  27  46 S8        29.64F
HOLYOKE        FAIR      43  32  65 SE6       29.71S
FORT MORGAN    FAIR      46  20  34 CALM      29.67F
$$

COZ086-089-092>099-190700-
...SOUTHEAST COLORADO...

CITY           SKY/WX    TMP DP  RH WIND       PRES   REMARKS
PUEBLO         FAIR      40  25  55 N3        29.70R
LA JUNTA       FAIR      56  28  34 SE13      29.72R
LAMAR          FAIR      56  31  38 S29G38    29.70F
SPRINGFIELD      N/A     45  33  63 S15       29.78S
$$



USA.gov is the U.S. government's official web portal to all federal, state and local government web resources and services.